#timestamp,LO_Frequency,Hit,StdDev 
1561453215.8,286046998.5,N
1561453235.6,286047002.2,N
1561453255.5,286047004.7,N
1561453275.3,286047009.2,N
1561453295.1,286047012.0,N
1561453315.9,286047011.0,N
1561453335.7,286047015.0,N
1561453355.5,286047018.3,N
1561453375.4,286047018.5,N
1561453395.2,286047020.4,N
1561453415.0,286047016.8,N
1561453415.9,286047016.8,N
1561453435.8,286047013.5,N
1561453455.6,286047008.3,N
1561453475.4,286047006.9,N
1561453495.3,286047004.5,N
1561453515.1,286047002.9,N
1561453516.0,286047002.9,N
1561453535.8,286047003.5,N
1561453555.7,286047003.5,N
1561453575.5,286047004.2,N
1561453595.3,286047004.0,N
1561453615.2,286047006.0,N
1561453635.9,286047003.3,N
1561453655.7,286047005.7,N
1561453675.6,286047007.6,N
1561453695.4,286047006.9,N
1561453715.2,286047010.6,N
1561453735.1,286047010.0,N
1561453736.0,286047010.0,N
1561453755.8,286047011.9,N
1561453775.6,286047010.0,N
1561453795.5,286047004.5,N
1561453815.3,286047007.0,N
1561453835.1,286047005.1,N
1561453855.9,286047003.3,N
1561453875.7,286047003.7,N
1561453895.5,286047001.8,N
1561453915.4,286047003.3,N
1561453935.2,286047004.2,N
1561453955.0,286047001.7,N
1561453955.9,286047001.7,N
1561453975.8,286047001.9,N
1561453995.6,286047002.8,N
1561454015.4,286047002.2,N
1561454035.3,286047002.0,N
1561454055.1,286047001.8,N
1561454056.0,286047001.8,N
1561454075.8,286047004.3,N
1561454095.7,286047003.1,N
1561454115.5,286047000.2,N
1561454135.3,286047002.3,N
1561454155.2,286047000.3,N
1561454175.9,286046999.7,N
1561454195.7,286046999.8,N
1561454215.6,286046998.3,N
1561454235.4,286046994.9,N
1561454255.2,286046999.3,N
1561454275.1,286047000.4,N
1561454276.0,286047000.4,N
1561454295.8,286046998.4,N
1561454315.6,286047002.1,N
1561454335.5,286047003.3,N
1561454355.3,286047004.1,N
1561454375.1,286047004.8,N
1561454395.9,286047009.3,Y
1561454415.7,286047012.2,P
1561454435.5,286047007.2,N
1561454455.4,286047003.3,N
1561454475.2,286047005.6,N
1561454495.0,286047004.5,N
1561454495.9,286047004.5,N
1561454515.8,286047003.5,N
1561454535.6,286046999.8,N
1561454555.4,286046999.2,N
1561454575.3,286046993.5,N
1561454595.1,286046993.4,N
1561454596.0,286046993.4,N
1561454615.8,286046997.8,N
1561454635.7,286046997.3,N
1561454655.5,286046997.7,N
1561454675.3,286046997.8,N
1561454695.2,286046997.6,N
1561454715.9,286046995.4,N
1561454735.7,286046995.7,N
1561454755.6,286046991.7,N
1561454775.4,286046992.2,N
1561454795.2,286046993.2,N
1561454815.1,286046989.5,N
1561454816.0,286046989.5,N
1561454835.8,286046986.9,N
1561454855.6,286046989.5,N
1561454875.5,286046988.7,N
1561454895.3,286046985.8,N
1561454915.1,286046986.4,N
1561454935.9,286046988.2,N
1561454955.7,286046987.2,N
1561454975.5,286046988.9,N
1561454995.4,286046988.9,N
1561455015.2,286046989.0,N
1561455035.0,286046991.2,N
1561455035.9,286046991.2,N
1561455055.8,286046990.7,N
1561455075.6,286046992.4,N
1561455095.4,286046994.3,N
1561455115.3,286046994.7,N
1561455135.1,286046992.0,N
1561455136.0,286046992.0,N
1561455155.8,286046988.6,Y
1561455175.7,286046993.3,P
1561455195.5,286046996.1,P
1561455215.3,286046993.7,P
1561455235.2,286046993.7,Y
1561455255.9,286046999.1,P
1561455275.7,286046997.5,N
1561455295.6,286046995.7,N
1561455315.4,286046995.0,N
1561455335.2,286046999.6,N
1561455355.1,286046998.6,N
1561455356.0,286046998.6,N
1561455375.8,286046998.6,N
1561455395.6,286046998.6,N
1561455415.5,286046998.4,N
1561455435.3,286046999.0,N
1561455455.1,286046997.1,N
1561455475.9,286046997.8,N
1561455495.7,286046997.3,N
1561455515.5,286046999.0,N
1561455535.4,286047001.0,N
1561455555.2,286047000.3,N
1561455575.0,286047001.0,N
1561455575.9,286047001.0,N
1561455595.8,286046996.9,N
1561455615.6,286046998.6,N
1561455635.4,286046993.5,Y
1561455655.3,286046995.8,P
1561455675.1,286046996.1,P
1561455676.0,286046996.1,P
1561455695.8,286046995.2,Y
1561455715.7,286046999.7,P
1561455735.5,286047000.4,N
1561455755.3,286047000.1,N
1561455775.2,286047001.8,N
1561455795.9,286047004.0,N
1561455815.7,286047001.7,N
1561455835.6,286047000.2,N
1561455855.4,286047000.2,N
1561455875.2,286047000.9,N
1561455895.1,286046994.9,N
1561455896.0,286046994.9,N
1561455915.8,286046993.9,N
1561455935.6,286046994.5,N
1561455955.5,286046994.1,N
1561455975.3,286046992.7,N
1561455995.1,286046990.5,N
1561456015.9,286046996.3,N
1561456035.7,286046994.4,N
1561456055.5,286046992.0,N
1561456075.4,286046994.0,N
1561456095.2,286046993.9,N
1561456115.0,286046993.4,N
1561456115.9,286046993.4,N
1561456135.8,286046995.5,N
1561456155.6,286046995.2,N
1561456175.4,286046995.4,N
1561456195.3,286046995.2,N
1561456215.1,286046996.0,N
1561456216.0,286046996.0,N
1561456235.8,286046995.3,N
1561456255.7,286046995.4,N
1561456275.5,286046995.2,N
1561456295.3,286046996.0,N
1561456315.2,286046994.5,N
1561456335.9,286046994.7,N
1561456355.7,286046993.5,N
1561456375.6,286046993.3,Y
1561456395.4,286047002.5,P
1561456415.2,286046998.5,N
1561456435.1,286046998.3,N
1561456436.0,286046998.3,N
1561456455.8,286046999.3,N
1561456475.6,286046999.4,N
1561456495.5,286046998.4,N
1561456515.3,286047001.0,N
1561456535.1,286047001.0,N
1561456555.9,286046999.7,N
1561456575.7,286047002.3,N
1561456595.5,286047001.3,N
1561456615.4,286047001.3,N
1561456635.2,286047002.9,N
1561456655.0,286047007.0,Y
1561456655.9,286047007.0,P
1561456675.8,286047003.9,N
1561456695.6,286047000.7,N
1561456715.4,286046995.0,N
1561456735.3,286046993.3,N
1561456755.1,286046992.7,N
1561456756.0,286046992.7,N
1561456775.8,286046991.7,N
1561456795.7,286046994.7,N
